This is the latest recevied weather packets stored in our database for station/object K4DFD-13. If no packets are shown the sender has not sent any weather packets the latest 10 day(s).
| Time | Temp. | Humidity | Pressure | Rain* | Wind** | Luminosity | Snow |
|---|---|---|---|---|---|---|---|
| 1777320339 | 20.56° C | 49% | 1021.1 hPa | 0 mm | - | - | - |
| 1777320039 | 20° C | 47% | 1021.2 hPa | 0 mm | - | - | - |
| 1777319738 | 20° C | 47% | 1021.2 hPa | 0 mm | - | - | - |
| 1777319438 | 20° C | 47% | 1021.4 hPa | 0 mm | - | - | - |
| 1777319137 | 20° C | 47% | 1021.5 hPa | 0 mm | - | - | - |
| 1777318837 | 20° C | 47% | 1021.6 hPa | 0 mm | - | - | - |
| 1777318536 | 20° C | 46% | 1021.7 hPa | 0 mm | - | - | - |
| 1777318236 | 20° C | 46% | 1021.6 hPa | 0 mm | - | - | - |
| 1777317936 | 20° C | 47% | 1021.7 hPa | 0 mm | - | - | - |
| 1777317635 | 20° C | 47% | 1021.7 hPa | 0 mm | - | - | - |
| 1777317335 | 19.44° C | 47% | 1021.9 hPa | 0 mm | - | - | - |
| 1777317035 | 20° C | 47% | 1022 hPa | 0 mm | - | - | - |
| 1777316734 | 19.44° C | 48% | 1022.1 hPa | 0 mm | - | - | - |
| 1777316434 | 19.44° C | 46% | 1022 hPa | 0 mm | - | - | - |
| 1777316134 | 19.44° C | 48% | 1022 hPa | 0 mm | - | - | - |
| 1777315833 | 19.44° C | 48% | 1022.1 hPa | 0 mm | - | - | - |
| 1777315533 | 19.44° C | 48% | 1022.1 hPa | 0 mm | - | - | - |
| 1777315232 | 19.44° C | 49% | 1022.1 hPa | 0 mm | - | - | - |
| 1777314932 | 19.44° C | 48% | 1022.1 hPa | 0 mm | - | - | - |
| 1777314632 | 19.44° C | 48% | 1022.2 hPa | 0 mm | - | - | - |
| 1777314331 | 18.89° C | 51% | 1022.1 hPa | 0 mm | - | - | - |
| 1777314031 | 18.89° C | 49% | 1022.2 hPa | 0 mm | - | - | - |
| 1777313730 | 18.33° C | 50% | 1022.3 hPa | 0 mm | - | - | - |
| 1777313430 | 18.33° C | 50% | 1022.3 hPa | 0 mm | - | - | - |
| 1777313130 | 18.33° C | 51% | 1022.5 hPa | 0 mm | - | - | - |
* Rain latest hour (hover to see other rain measurements)
** Current wind speed in m/s (hover to see current wind gust speed)